User: anonymous   Login
Location: Berlise
(49.6641°N, 4.1077°E)
Time: 20:31:58
(UTC+00:00)
Language:

USA 308 - Orbit

View from above orbital plane
View from above orbital plane
View from above satellite
View from above satellite

Ground track
Ground track

The orbit data is extracted from the following two-line orbital elements,

1 45876U 20046D   21125.86872895 0.00002100  00000-0  17425-3 0    04
2 45876  53.9774  90.3709 0005378 311.7296  48.2703 14.98333051    08
Epoch (UTC): 05 May 2021 20:50:58
Eccentricity: 0.0005378
inclination: 53.9774°
perigee height: 568 km
apogee height: 576 km
right ascension of ascending node: 90.3709°
argument of perigee: 311.7296°
revolutions per day: 14.98333051
mean anomaly at epoch: 48.2703°
orbit number at epoch: 0

The dashed part of the orbit path shows where the satellite is in the earth's shadow,  

DLR